Tracking 31029 objects as of 16-Jul-2025
HD Live streaming from Space Station
objects crossing your sky now

STARLINK-5347

Track STARLINK-5347 now!
10-day predictions
STARLINK-5347 is classified as:


NORAD ID: 57137
Int'l Code: 2023-090AN
Perigee: 565.5 km
Apogee: 566.9 km
Inclination: 43.0 °
Period: 95.8 minutes
Semi major axis: 6937 km
RCS: Unknown
Launch date: June 23, 2023
Source: United States (US)
Launch site: AIR FORCE EASTERN TEST RANGE (AFETR)
Your satellite tracking list
Your tracking list is empty




NASA's NSSDC Master Catalog

Two Line Element Set (TLE):
1 57137U 23090AN  25196.45287040  .00000012  00000-0  15980-4 0  9990
2 57137  43.0039 110.9760 0000990 260.2794  99.7937 15.02532475114684
Source of the keplerian elements: AFSPC